STARLINK-32571, 62055

Orbit data source: Space-Track

STARLINK-32571, 62055 is a payload satellite owned by SpaceX/Seattle (US) in LEO that was launched on Thu, 21 Nov 2024 UTC via an FALCON 9 launch vehicle from the Air Force Eastern Test Range (AFETR). Payloads include a variety of satellites, spacecraft, and rockets equipped with specific instruments for various scientific and technological missions. These include communications satellites like Starlink; space stations such as the ISS; scientific satellites like the Hubble; Earth observation satellites from companies like Planet Labs, Umbra, and HawkEye 360; GPS; miniature CubeSats for education and research; and military/defense satellites.

Loading next visibility...
STARLINK-32571 details
Identifier
62055, 2024-216Z
Orbit
LEO
Last TLE update10 hours ago
Origin
Flag of USSpaceX/Seattle (US)
ManufacturerSpaceX/Seattle
MissionOperational spacecraft
Bus & MotorSTARLINK V2M, Unknown motor
Mass730 kg wet, ~700 kg dry
Launch date (UTC)
2024-11-21 (3 weeks ago)
Launch vehicle
FALCON 9
Launch site
Air Force Eastern Test Range (AFETR)
Object type
Payload
Rocket body
Debris
Shape & HBRUnknown
Radar Cross SectionLarge (>1 m²)

Expand to show TLE details & history

TLE from 10 hours ago
0 STARLINK-32571
1 62055U 24216Z   24348.50002315 -.00011632  00000-0 -19265-3 0  9991
2 62055  42.9996 307.3196 0001081 276.5413 215.8690 15.50594237  4709
Epoch: 2024-12-13T12:00Z
Definitive object data (Epoch: 2024-12-13T12:00:02Z)
Latitude30.35356°
Longitude-173.99905°
Altitude416.207 km
Speed7.666 km/s
True Right ascension05h 54m 41s
True Declination30° 11' 47"
Sunlit
Object was in full shadow at TLE epoch
Visualization TLE readout
Latitude-9.63676°
Longitude-127.24735°
Altitude416.476 km
Speed7.662 km/s
Apparent Right ascension08h 37m 26s
Apparent Declination-24° 19' 09"
Sunlit
Object is in full shadow
Visualization observer readout
Local Sidereal Time20:04:12
Azimuth333.381° NNW
Elevation-72.91°
Doppler factor1
Orbital elements
Apogee altitude417.689 km
Perigee altitude416.22 km
Semi-major axis6,795.092 km
Eccentricity0.0001081
Inclination42.9996°
RAAN307.3196°
Arg. of periapsis276.5413°
True anomaly215.86174°
Mean anomaly215.869°
Eccentric anomaly215.86537°
Mean motion3.87481 °/min
BSTAR-0.00019265
Orbital period92.91 mins
Loading maneuver chart data...
Loading historical data...
Loading historical data...
Loading historical data...
Loading historical data...
Loading historical data...
Loading historical data...
Loading historical data...

STARLINK-32571 Visibility forecast

Observer location: undefined°, undefined

Span
Click to sort rows by Start time (UTC) header in descending order
Start Az.
Max El. time (UTC)
Max El. Az.
Max El.
End time (UTC)
End Az.
4 mins2024-12-14 01:36:27.385Z234.251° WSW2024-12-14 01:37:27.385Z207.123° SW41.203°2024-12-14 01:40:27.385Z75.828° E
5 mins2024-12-14 03:13:27.385Z287.537° WNW2024-12-14 03:15:27.385Z1.522° NNE37.043°2024-12-14 03:18:27.385Z71.471° E
4 mins2024-12-14 04:51:27.385Z298.415° NW2024-12-14 04:53:27.385Z57.194° ENE39.85°2024-12-14 04:55:27.385Z93.178° ESE
4 mins2024-12-14 06:28:27.385Z263.819° W2024-12-14 06:30:27.385Z204.06° SW28.864°2024-12-14 06:32:27.385Z151.513° SSE
|